AirNav   Get $300 off a Bose A20
 
 851 users online  

54M Wolf River Airport
Rossville, Tennessee, USA

GOING TO ROSSVILLE?


FAA INFORMATION EFFECTIVE 23 MAY 2019

Location

FAA Identifier: 54M
Lat/Long: 35-03-14.4850N / 089-34-48.0950W
35-03.241417N / 089-34.801583W
35.0540236 / -89.5800264
(estimated)
Elevation: 310 ft. / 94 m (estimated)
Variation: 02E (1985)
From city: 2 miles W of ROSSVILLE, TN
Time zone: UTC -5 (UTC -6 during Standard Time)
Zip code: 38066

Airport Operations

Airport use: Open to the public
Control tower: no
ARTCC: MEMPHIS CENTER
FSS: JACKSON FLIGHT SERVICE STATION
NOTAMs facility: MKL (NOTAM-D service available)
Attendance: 0800-1700
Wind indicator: yes
Segmented circle: no

Airport Communications

CTAF: 122.9
WX AWOS-3 at OLV (11 nm SW): 119.925 (662-893-5906)
WX AWOS-3 at FYE (13 nm NE): 119.875 (901-465-6367)
WX ASOS at MEM (19 nm W): 127.75 (901-332-3679)

Nearby radio navigation aids

VOR radial/distance  VOR name  Freq  Var
HLIr343/17.5HOLLY SPRINGS VORTAC112.4003E
MEMr082/19.9MEMPHIS VORTAC117.5001E

Airport Services

Fuel available: 100LL
Parking: hangars and tiedowns

Runway Information

Runway 18/36

Dimensions: 3106 x 100 ft. / 947 x 30 m
Surface: turf, in poor condition
Runway edge markings: RY, THLD AND DSPLCD THLD MARKED WITH 3 FT WHITE CONE EDGE MARKERS.
RUNWAY 18  RUNWAY 36
Latitude: 35-03.497167N35-02.985667N
Longitude: 089-34.787000W089-34.816167W
Elevation: 303.4 ft.305.0 ft.
Traffic pattern: rightleft
Displaced threshold: 1000 ft.no
Markings: , in good condition, in good condition
Obstructions: 42 ft. trees, 768 ft. from runway, 110 ft. right of centerline, 18:1 slope to clear
APCH RATIO 54:1 FM DSPLCD THLD.
79 ft. trees, 813 ft. from runway, 79 ft. left of centerline, 10:1 slope to clear
APCH RATIO 16:1 FM DSPLCD THLD.

Airport Ownership and Management from official FAA records

Ownership: Privately-owned
Owner: MARY S. DEGAN
2799 SCARLET ROAD
GERMANTOWN, TN 38139
Phone (901) 493-8375
Manager: MARY DEGAN
2799 SCARLET ROAD
GERMANTOWN, TN 38139
Phone (901) 493-8375

Airport Operational Statistics

Aircraft based on the field: 39
Single engine airplanes: 34
Gliders airplanes: 5
    
Aircraft operations: avg 22/day *
88% local general aviation
9% transient general aviation
3% military
* for 12-month period ending 31 January 2016

Additional Remarks

FOR CD CTC MEMPHIS APCH AT 901-842-8457.

Instrument Procedures

There are no published instrument procedures at 54M.

Some nearby airports with instrument procedures:

KOLV - Olive Branch Airport (11 nm SW)
KFYE - Fayette County Airport (13 nm NE)
M41 - Holly Springs-Marshall County Airport (15 nm S)
KMEM - Memphis International Airport (19 nm W)
2M8 - Charles W Baker Airport (22 nm NW)
 
Loc | Ops | Rwys | IFR | FBO | Links
Com | Nav | Svcs | Stats | Notes
Area around 54M (Wolf River Airport)
 
Road maps at: MapQuest Bing Google
 
Aerial photo
WARNING: Photo may not be current or correct
Aerial photo of 54M (Wolf River Airport)
Do you have a better or more recent aerial photo of Wolf River Airport that you would like to share? If so, please send us your photo.

 
Sectional chart

 
Airport distance calculator
Flying to Wolf River Airport? Find the distance to fly.

From to 54M

Sunrise and sunset
Times for 24-May-2019
 Local
(UTC-5)
 Zulu
(UTC)
Morning civil twilight05:2110:21
Sunrise05:5010:50
Sunset20:0101:01
Evening civil twilight20:2901:29

Current date and time
Zulu (UTC)  25-May-2019 01:08:38
Local (UTC-5)  24-May-2019 20:08:38
 
METAR
KOLV 
11nm SW 
250050Z 17005KT 10SM SKC 27/22 A3003
KFYE 
13nm NE 
250055Z AUTO 00000KT 10SM CLR 28/21 A3003 RMK A01
KMEM 
20nm W 
250054Z 17008KT 10SM CLR 29/21 A3002 RMK AO2 SLP163 T02940206
TAF
KMEM 
20nm W 
242055Z 2421/2524 20010G16KT P6SM SCT050 SCT100 FM250100 19005KT P6SM SKC FM251500 23010G15KT P6SM FEW040 SCT250
NOTAMs
Click for the latest NOTAMs
NOTAMs are issued by the DoD/FAA and will open in a separate window not controlled by AirNav.

 

 
 

Would you like to see your business listed on this page?

 If your business provides an interesting product or service to pilots, flight crews, aircraft, or users of the Wolf River Airport, you should consider listing it here.  To start the listing process, click on the button below
 
Add a business
 

Other Pages about Wolf River Airport

Update a link
 
Copyright © AirNav, LLC. All rights reserved. Privacy Policy  Contact